Location: Black Horse
(41.1589°N, 81.2732°W)
Time: 03:45:54
(UTC+00:00)

Daily predictions for brighter satellites

Satellite Brightness Start Highest point End
(mag) Time Altitude Azimuth Time Altitude Azimuth Time Altitude Azimuth
Cosmos 1627 Rocket 4.5 00:02:34 10° S 00:08:34 57° E 00:14:40 10° NNE
NOSS 3-1 (C) 4.4 00:02:55 10° NNW 00:10:05 45° NE 00:14:28 26° ESE
EXPRESS MD2 3.8 00:02:53 10° WNW 00:10:10 85° SW 00:11:54 34° SE
COSMOS 2406 4.3 00:06:42 10° N 00:10:41 25° NE 00:10:41 25° NE
IRS-1C Rocket 4.4 00:06:20 10° S 00:11:33 67° WSW 00:16:47 10° NNW
Cosmos 1328 3.8 00:08:03 10° S 00:11:59 58° E 00:12:44 48° NE
DMSP B5D1-3 4.4 00:08:21 10° NNE 00:13:27 71° ESE 00:18:31 10° S
Cosmos 489 Rocket 4.5 00:07:14 10° NNW 00:13:39 86° WSW 00:19:57 10° SSE
CZ-2C R/B 3.0 00:12:37 29° NE 00:14:54 43° E 00:20:13 10° S
CSL-04 Debris 4.1 00:11:12 10° SSE 00:16:30 61° ENE 00:21:48 10° N
Hubble Space Telescope 3.1 00:16:28 10° SSW 00:18:39 14° S 00:19:55 12° SSE
PSLV R/B 4.4 00:15:15 10° N 00:19:25 61° WNW 00:23:34 10° SSW
CZ-4 R/B 1.8 00:15:26 10° S 00:19:30 64° WSW 00:23:32 10° NNW
Cosmos 158 Rocket 4.1 00:14:47 10° NNW 00:20:10 84° WSW 00:25:33 10° SSE
X-37B 1.4 00:18:24 10° W 00:21:06 46° NW 00:21:06 46° NW
Cosmos 1092 Rocket 3.9 00:16:30 10° S 00:22:42 89° W 00:28:54 10° N
Cosmos 923 Rocket 4.0 00:19:21 10° NNW 00:24:43 84° WSW 00:30:00 10° SSE
NOSS 2-1 (C) 3.0 00:22:35 10° SW 00:25:40 70° WSW 00:25:40 70° WSW
H-2A R/B 2.0 00:21:26 10° S 00:26:22 77° WSW 00:31:30 10° NNW
Cosmos 1844 4.4 00:21:33 10° SW 00:27:04 54° WNW 00:32:04 13° NNE
Cosmos 1898 Rocket 3.4 00:22:21 10° SSW 00:27:38 83° ESE 00:30:02 33° NNE
USA 229 DEB 4.3 00:20:47 10° NNW 00:27:40 42° NE 00:29:07 38° ENE
USA 229 4.3 00:20:54 10° NNW 00:27:46 41° NE 00:29:09 38° ENE
Cosmos 1833 Rocket 4.0 00:23:00 10° N 00:25:54 23° NNE 00:25:54 23° NNE
SJ-11-01 4.3 00:24:21 10° S 00:29:02 78° WSW 00:33:44 10° NNW
USA 267 3.5 00:29:21 41° E 00:31:04 50° SE 00:37:22 10° SSW
CZ-3B R/B 2.7 00:27:53 10° NW 00:31:04 55° NE 00:32:08 47° E
Cosmos 1680 Rocket 3.3 00:26:21 10° NNW 00:31:37 85° ENE 00:35:58 15° SSE
NOSS 2-1 (D) 3.4 00:28:30 10° SW 00:31:25 57° WSW 00:31:25 57° WSW
CZ-2C R/B 4.4 00:26:57 10° SSW 00:31:53 41° W 00:37:06 10° NNW
Cosmos 2082 Rocket 4.2 00:28:32 10° N 00:29:36 13° NNE 00:29:36 13° NNE
Cosmos 2098 Rocket 4.2 00:30:18 10° S 00:37:17 77° E 00:44:45 10° N
NOSS 3-1 (A) 4.3 00:36:12 10° NNW 00:43:24 46° NE 00:44:20 45° ENE
Iridium 4 Rocket 3.7 00:38:39 10° N 00:44:15 75° W 00:49:22 10° S
Cosmos 1844 Rocket 4.3 00:40:08 10° WSW 00:45:10 32° WNW 00:50:05 11° N
ISS -1.4 00:42:29 10° WNW 00:44:22 20° NW 00:44:22 20° NW
Cosmos 44 3.9 00:45:40 10° SW 00:50:18 52° NW 00:51:21 44° NNW
Meteor 1-11 4.1 00:47:15 10° S 00:52:59 89° W 00:54:36 49° N
Cosmos 2278 Rocket 2.9 00:51:31 10° S 00:55:13 40° S 00:55:13 40° S
Cosmos 1758 Rocket 4.5 00:53:57 10° SSW 00:57:04 44° SW 00:57:04 44° SW
Cosmos 1937 Rocket 3.7 00:55:38 10° SSW 01:00:54 70° WNW 01:01:19 67° NW
USA 234 4.1 01:05:11 34° NNE 01:05:11 34° NNE 01:10:22 10° NW
CSL-04 Rocket 4.4 01:01:00 10° S 01:06:13 52° W 01:11:35 10° NNW
Lacrosse 5 3.0 01:05:54 10° WNW 01:10:34 39° SW 01:11:08 37° SW
Cosmos 2344 4.3 01:07:10 10° NNW 01:16:52 78° NE 01:21:29 46° SE
Cosmos 1553 Rocket 4.0 01:11:11 10° N 01:17:32 80° W 01:17:32 80° W
FALCON 9 R/B 4.3 09:13:18 16° SE 09:13:18 16° SE 09:14:13 10° SE
Cosmos 2278 Rocket 3.8 09:48:40 23° NNE 09:51:01 30° NE 09:55:57 10° ESE
Lacrosse 5 rocket 4.1 09:53:18 13° NE 09:53:18 13° NE 09:54:11 10° ENE
Atlas Centaur 2 4.0 09:52:58 29° S 09:54:35 31° SSE 10:01:40 10° ESE
Cosmos 2237 Rocket 3.7 09:54:38 10° SSE 09:59:39 34° ESE 10:04:42 10° NE
Cosmos 2219 Rocket 3.3 10:05:16 33° NNE 10:05:16 33° NNE 10:08:19 10° NNE
Cosmos 2333 Rocket 3.4 10:08:58 30° N 10:08:58 30° N 10:11:52 10° NNE
COSMO-SKYMED 1 3.9 10:04:28 10° SE 10:08:28 37° ENE 10:09:34 32° NE
OAO 2 Rocket 4.4 10:09:40 37° SSE 10:09:40 37° SSE 10:13:23 10° ESE
CZ-4B R/B 4.4 10:06:44 10° SE 10:07:04 12° SE 10:07:04 12° SE
SL-4 R/B 4.3 10:11:55 17° SE 10:12:35 17° SE 10:15:11 10° E
ERS-2 3.9 10:16:37 10° SE 10:19:49 30° ENE 10:20:33 28° NE
NOSS 0 Rocket 4.1 10:15:11 13° SSW 10:20:38 69° ESE 10:26:47 10° NNE
Cosmos 990 Rocket 3.8 10:21:29 84° NNE 10:21:36 86° ENE 10:26:44 10° SSE
COSMOS 2428 3.1 10:27:41 46° NNW 10:27:41 46° NNW 10:32:06 10° NNE
ADEOS 3.4 10:26:13 10° N 10:31:26 73° WNW 10:32:20 59° SW
Cosmos 1980 3.9 10:27:01 10° SSW 10:32:37 69° ESE 10:38:15 10° NNE
Cosmos 2360 Rocket 4.4 10:37:02 11° N 10:37:02 11° N 10:37:23 10° N
CZ-2C R/B 2.9 10:34:43 25° S 10:35:09 26° SSE 10:38:32 10° ESE
Cosmos 1513 Rocket 4.4 10:29:24 10° S 10:35:45 85° W 10:42:01 10° N
Cosmos 1953 2.7 10:34:56 10° S 10:38:51 61° E 10:42:46 10° NNE
Meteor 2-10 4.1 10:33:51 10° SSW 10:39:27 65° WNW 10:44:55 10° N
Okean 1-7 Rocket 3.6 10:38:47 26° N 10:41:22 81° E 10:45:50 10° S
Cosmos 1763 Rocket 3.6 10:43:06 51° NW 10:43:06 51° NW 10:47:49 10° N
ATLAS CENTAUR R/B 3.6 10:40:12 10° SSE 10:43:07 22° ESE 10:46:00 10° ENE
Cosmos 1891 Rocket 4.3 10:38:54 10° SSW 10:45:05 70° W 10:51:11 10° N
Cosmos 1464 Rocket 3.8 10:42:55 10° SSW 10:49:01 72° W 10:55:11 10° N
Cosmos 841 Rocket 3.4 10:44:42 10° SSW 10:49:50 88° ESE 10:55:01 10° NNE
Cosmos 1455 Rocket 3.8 10:51:52 35° NNW 10:51:52 35° NNW 10:54:34 10° N
Cosmos 1072 Rocket 4.4 10:48:21 10° SSW 10:54:27 60° W 11:00:41 10° N
BREEZE-M DEB (TANK) 3.4 10:50:18 27° WNW 10:55:18 72° NNE 10:58:48 10° ESE
Cosmos 1898 Rocket 3.5 10:54:09 40° NW 10:55:38 54° WSW 11:00:40 10° S
SKYMED 2 3.5 10:52:06 10° S 10:56:24 64° W 10:58:08 34° NNW
USA 307 4.5 10:54:52 10° SSW 10:58:41 34° SE 11:02:31 10° ENE
Cosmos 1340 3.6 10:57:21 10° N 11:01:01 48° ENE 11:04:39 10° SSE
SAR-Lupe-4 3.7 10:57:36 10° SSE 11:01:09 74° ENE 11:03:46 18° N
FALCON 9 DEB 3.7 11:03:09 42° N 11:03:09 42° N 11:06:04 10° NE
Meteor 1-16 Rocket 4.3 10:58:42 10° S 11:04:35 87° E 11:10:33 10° N
deb Chang Zheng 4 3.5 11:01:28 10° N 11:05:37 55° WNW 11:09:45 10° SSW
CENTAUR R/B 4.3 11:00:54 10° S 11:05:47 30° ESE 11:11:22 10° NE
ATLAS 5 CENTAUR R/B 1.2 11:06:10 60° WNW 11:06:34 76° SW 11:11:55 10° SE
USA 305 4.0 11:03:21 10° SSW 11:07:22 43° SE 11:11:24 10° ENE
USA 308 4.1 11:03:27 10° SSW 11:07:25 40° SE 11:11:23 10° ENE
Cosmos 1461 3.9 11:07:44 32° NW 11:07:54 32° NW 11:12:12 10° NNE
PSLV R/B 3.8 11:04:15 10° SSE 11:08:21 88° WSW 11:12:31 10° NNW
Cosmos 1570 Rocket 3.9 11:03:43 10° SSW 11:08:55 77° WNW 11:14:11 10° NNE
SAR-Lupe-1 3.9 11:08:08 10° SSE 11:11:43 82° WSW 11:14:34 16° NNW
Cosmos 1703 3.2 11:11:25 10° N 11:15:20 83° E 11:19:14 10° S
Cosmos 1689 Rocket 1.8 11:13:09 10° S 11:16:03 76° WSW 11:17:16 31° NNW
Okean O Rocket 3.9 11:14:18 10° NE 11:18:01 27° E 11:21:41 10° SSE
Cosmos 1092 Rocket 4.2 11:12:21 10° N 11:18:32 75° E 11:24:42 10° SSE
USA 306 3.6 11:15:06 10° SSW 11:19:14 54° SE 11:23:23 10° ENE
USA 238 DEB 4.3 11:16:42 10° SSW 11:23:02 58° ESE 11:29:40 10° NE
USA 238 4.3 11:16:50 10° SSW 11:23:10 57° ESE 11:29:47 10° NE
H-2A R/B 2.8 11:19:58 10° N 11:23:32 49° WNW 11:27:08 10° SSW
Cosmos 1346 Rocket 4.3 11:20:45 10° N 11:24:27 37° ENE 11:28:10 10° SE
Cosmos 1602 Rocket 3.5 11:20:29 10° N 11:24:59 89° SW 11:29:27 10° S
Cosmos 372 Rocket 3.9 11:21:19 10° NNW 11:26:35 80° WSW 11:31:48 10° SSE
Cosmos 2034 Rocket 4.2 11:21:11 10° SSW 11:27:21 52° WNW 11:33:33 10° N
Cosmos 44 Rocket 3.7 11:24:27 19° NW 11:27:57 50° WSW 11:32:56 10° S
Cosmos 1937 Rocket 4.0 11:24:37 16° NW 11:28:18 38° WSW 11:33:06 10° SSW
Cosmos 2369 Rocket 4.5 11:24:37 10° N 11:28:34 19° NE 11:32:30 10° E
DMSP B5D1-3 4.4 11:23:54 10° SSE 11:29:01 83° WSW 11:34:08 10° NNW
CZ-4B R/B 3.4 11:26:01 10° N 11:29:12 30° WNW 11:32:28 10° SW
SWAS 4.3 11:25:15 10° SSW 11:29:29 74° WNW 11:33:47 10° NNE
Cosmos 1814 Rocket 4.0 11:24:36 10° SW 11:29:38 55° WNW 11:34:40 10° N
Cosmos 2208 Rocket 4.1 11:25:07 10° SSW 11:30:30 62° WNW 11:35:53 10° NNE
Lacrosse 5 rocket 1.1 11:28:55 20° NW 11:31:32 79° NE 11:35:13 10° SE
Gbstr 26 Del rocket 4.5 11:24:03 10° WSW 11:31:34 78° NNW 11:39:46 10° NE
SL-16 R/B 2.6 11:26:11 10° SSW 11:31:47 69° ESE 11:37:25 10° NNE
YAOGAN 6 2.6 11:29:14 10° N 11:32:53 59° WNW 11:36:31 10° SSW
Nadezhda 4 Rocket 4.1 11:28:12 10° NNW 11:34:04 49° W 11:39:54 10° SSW
Envisat 2.9 11:29:03 10° N 11:34:06 70° WNW 11:39:08 10° SSW
Cosmos 2278 Rocket 2.6 11:30:34 13° NW 11:35:11 40° WSW 11:40:25 10° S
Cosmos 1943 Rocket 3.7 11:31:44 10° N 11:36:56 35° ENE 11:42:05 10° ESE
CZ-4B R/B 4.3 11:31:28 10° NNE 11:36:58 51° E 11:42:22 10° S
CZ-2C R/B 3.0 11:32:51 10° SSE 11:38:00 66° ENE 11:43:16 10° N
SL-8 R/B 3.9 11:36:10 19° WNW 11:39:30 57° SW 11:44:13 10° SE
Cosmos 1825 Rocket 4.4 11:37:41 10° N 11:42:05 54° E 11:46:27 10° SSE
Cosmos 1634 Rocket 4.0 11:36:07 10° S 11:42:17 86° W 11:48:30 10° N
Atlas Centaur 2 4.1 11:36:14 10° WSW 11:43:32 39° S 11:51:16 10° ESE
Cosmos 2237 Rocket 2.8 11:38:29 10° WSW 11:43:38 35° WNW 11:48:51 10° N
MOS 1 Rocket 4.1 11:39:37 10° SSW 11:44:05 32° W 11:48:22 10° NNW
Spot 2 3.8 11:40:08 10° NNE 11:44:11 84° WNW 11:48:15 10° SSW
Lacrosse 4 Rocket 1.4 11:40:02 10° SW 11:44:12 65° WNW 11:48:31 10° NNE
NOAA 6 4.0 11:39:18 10° N 11:44:30 78° WNW 11:49:40 10° SSW
COSMO-SKYMED 1 3.9 11:41:38 10° SW 11:44:44 19° W 11:46:47 14° WNW
Cosmos 1400 Rocket 3.3 11:41:58 10° SW 11:45:47 39° WNW 11:49:41 10° N
GEOS 3 Rocket 4.0 11:41:11 10° SSE 11:46:20 49° WSW 11:51:34 10° NW
SMAP 3.2 11:41:47 10° NNE 11:46:28 78° ESE 11:51:07 10° S
Cosmos 1328 3.8 11:42:43 10° NNW 11:46:35 56° W 11:50:24 10° S
Cosmos 2219 Rocket 3.9 11:47:02 12° NW 11:47:43 12° NW 11:49:55 10° NNW
Cosmos 1300 2.7 11:45:30 10° S 11:49:18 88° ESE 11:53:08 10° N
PAYLOAD B 4.3 11:44:04 10° NNE 11:49:41 90° WNW 11:55:17 10° SSW
SL-4 R/B 1.9 11:47:59 10° WSW 11:51:44 67° NNW 11:55:49 10° NE
Cosmos 2333 Rocket 4.0 11:51:01 10° NW 11:51:46 11° NW 11:52:58 10° NNW
OAO 2 Rocket 4.4 11:48:40 10° WSW 11:53:05 34° SSW 11:57:29 10° SE
ERS-2 3.7 11:51:01 10° SW 11:53:24 17° W 11:55:07 13° WNW
Cosmos 540 Rocket 4.5 11:49:40 10° WSW 11:53:46 24° WNW 11:57:54 10° N
PSLV R/B 4.2 11:50:02 10° N 11:53:47 42° WNW 11:57:36 10° SW
